Total_Precipitation_Accumulation
0.05 0.10 0.16 0.18 0.15 0.12 0.10 0.10 0.12 0.14 0.21 0.26 0.32 0.26 0.17 0.21 0.27 0.20 0.16 0.14 0.12 0.13 0.12 0.09 0.09 0.11 0.14 0.17 0.19 0.20 0.22 0.27 0.28 0.30 0.33 0.34 0.37 0.43 0.47 0.50 0.51 0.54 0.57 0.54
0.06 0.10 0.12 0.13 0.16 0.12 0.08 0.07 0.08 0.09 0.16 0.23 0.28 0.32 0.27 0.22 0.21 0.21 0.19 0.17 0.19 0.21 0.18 0.15 0.13 0.13 0.15 0.20 0.25 0.29 0.35 0.38 0.34 0.36 0.38 0.37 0.39 0.42 0.48 0.51 0.56 0.62 0.66 0.67
0.15 0.15 0.15 0.16 0.15 0.11 0.09 0.10 0.10 0.12 0.17 0.23 0.29 0.33 0.35 0.34 0.26 0.26 0.30 0.27 0.31 0.36 0.28 0.21 0.19 0.21 0.23 0.27 0.31 0.35 0.42 0.51 0.52 0.51 0.52 0.51 0.53 0.56 0.59 0.67 0.69 0.71 0.70 0.71
0.21 0.24 0.27 0.18 0.14 0.12 0.11 0.12 0.14 0.18 0.24 0.28 0.36 0.42 0.46 0.52 0.47 0.38 0.34 0.33 0.34 0.33 0.35 0.36 0.34 0.35 0.37 0.40 0.44 0.53 0.61 0.70 0.78 0.79 0.80 0.82 0.88 0.85 0.85 0.88 0.88 0.86 0.84 0.84
0.32 0.37 0.31 0.23 0.20 0.19 0.20 0.23 0.25 0.33 0.46 0.51 0.51 0.56 0.59 0.53 0.42 0.34 0.33 0.32 0.40 0.40 0.39 0.40 0.48 0.49 0.47 0.49 0.54 0.68 0.80 0.87 0.94 0.98 1.02 1.05 1.04 1.05 1.09 1.15 1.14 1.10 1.06 1.07
0.38 0.42 0.43 0.38 0.34 0.33 0.40 0.59 0.51 0.56 0.60 0.54 0.49 0.60 0.58 0.45 0.39 0.34 0.32 0.33 0.40 0.44 0.44 0.48 0.56 0.54 0.56 0.60 0.68 0.72 0.75 0.82 0.96 1.10 1.19 1.15 1.14 1.21 1.30 1.37 1.33 1.30 1.29 1.31
0.45 0.47 0.41 0.41 0.39 0.45 0.74 0.92 0.76 0.71 0.68 0.62 0.67 0.67 0.61 0.49 0.38 0.30 0.28 0.31 0.35 0.38 0.42 0.44 0.51 0.60 0.73 0.83 0.85 0.83 0.86 0.91 1.00 1.12 1.23 1.22 1.25 1.29 1.35 1.39 1.37 1.35 1.30 1.26
0.67 0.75 0.70 0.48 0.52 0.74 0.88 0.73 0.69 0.75 0.80 0.79 0.72 0.63 0.50 0.42 0.36 0.28 0.26 0.26 0.29 0.35 0.38 0.43 0.51 0.64 0.79 0.92 0.97 0.99 1.04 1.13 1.19 1.25 1.21 1.17 1.27 1.34 1.39 1.45 1.42 1.37 1.37 1.29
0.84 0.87 0.76 0.63 0.68 0.65 0.62 0.67 0.71 0.73 0.83 0.83 0.71 0.68 0.53 0.43 0.37 0.31 0.27 0.25 0.26 0.31 0.36 0.44 0.53 0.66 0.84 0.91 0.94 0.99 1.05 1.11 1.20 1.24 1.26 1.24 1.28 1.32 1.45 1.52 1.51 1.45 1.44 1.45
0.89 0.87 0.77 0.72 0.72 0.63 0.57 0.60 0.64 0.67 0.68 0.70 0.64 0.67 0.63 0.51 0.39 0.33 0.28 0.24 0.24 0.28 0.34 0.41 0.43 0.49 0.59 0.66 0.73 0.80 0.84 0.86 0.89 0.98 1.06 1.17 1.28 1.28 1.33 1.40 1.47 1.52 1.51 1.44
0.90 0.99 1.02 0.94 0.84 0.76 0.69 0.69 0.74 0.74 0.69 0.66 0.56 0.54 0.56 0.50 0.38 0.32 0.28 0.24 0.26 0.30 0.32 0.34 0.38 0.39 0.41 0.50 0.65 0.74 0.74 0.74 0.79 0.87 0.96 1.12 1.28 1.34 1.25 1.27 1.34 1.34 1.27 1.23
0.81 0.86 1.01 1.08 0.97 0.85 0.76 0.79 0.80 0.78 0.71 0.64 0.55 0.46 0.38 0.33 0.28 0.26 0.25 0.27 0.31 0.33 0.32 0.32 0.36 0.37 0.37 0.44 0.59 0.70 0.72 0.70 0.74 0.79 0.89 1.00 1.13 1.18 1.05 0.90 0.89 0.87 0.79 0.72
0.64 0.71 0.79 0.90 0.91 0.85 0.80 0.80 0.74 0.66 0.58 0.56 0.47 0.39 0.30 0.26 0.24 0.23 0.27 0.33 0.38 0.41 0.41 0.38 0.37 0.37 0.37 0.43 0.57 0.73 0.73 0.68 0.69 0.72 0.78 0.84 0.91 1.02 1.04 0.89 0.69 0.60 0.49 0.39
0.68 0.73 0.83 0.89 0.85 0.77 0.76 0.69 0.61 0.61 0.58 0.54 0.49 0.40 0.33 0.28 0.27 0.28 0.33 0.40 0.44 0.44 0.42 0.42 0.43 0.38 0.38 0.40 0.49 0.74 0.83 0.73 0.64 0.64 0.70 0.75 0.81 0.88 0.97 1.02 0.93 0.73 0.50 0.31
0.67 0.67 0.68 0.63 0.65 0.68 0.71 0.70 0.61 0.57 0.51 0.50 0.48 0.39 0.33 0.30 0.31 0.32 0.38 0.46 0.52 0.49 0.45 0.43 0.42 0.39 0.38 0.40 0.44 0.55 0.74 0.78 0.69 0.64 0.67 0.73 0.77 0.81 0.89 0.95 1.02 0.98 0.75 0.46
0.66 0.67 0.63 0.61 0.63 0.60 0.58 0.61 0.63 0.54 0.46 0.45 0.43 0.34 0.29 0.29 0.30 0.34 0.40 0.54 0.71 0.71 0.61 0.55 0.51 0.45 0.42 0.44 0.47 0.52 0.60 0.56 0.55 0.61 0.64 0.70 0.76 0.79 0.83 0.91 0.97 1.00 0.89 0.64
0.66 0.67 0.65 0.64 0.62 0.54 0.46 0.48 0.49 0.47 0.39 0.37 0.40 0.38 0.33 0.34 0.41 0.47 0.52 0.59 0.69 0.71 0.67 0.65 0.57 0.46 0.41 0.43 0.47 0.47 0.52 0.46 0.36 0.47 0.61 0.67 0.72 0.78 0.80 0.85 0.92 0.94 0.85 0.55
0.55 0.55 0.51 0.48 0.51 0.51 0.45 0.39 0.35 0.35 0.33 0.33 0.37 0.40 0.39 0.46 0.62 0.71 0.73 0.75 0.73 0.63 0.58 0.58 0.48 0.39 0.35 0.35 0.38 0.42 0.52 0.52 0.39 0.41 0.55 0.60 0.63 0.76 0.80 0.82 0.85 0.87 0.78 0.52
0.47 0.45 0.39 0.33 0.31 0.33 0.35 0.34 0.30 0.28 0.27 0.29 0.37 0.43 0.44 0.48 0.62 0.72 0.76 0.85 0.92 0.83 0.65 0.53 0.41 0.34 0.31 0.26 0.24 0.33 0.45 0.50 0.41 0.39 0.49 0.48 0.55 0.74 0.78 0.78 0.82 0.82 0.68 0.57
0.37 0.33 0.27 0.24 0.21 0.22 0.24 0.24 0.24 0.24 0.24 0.28 0.38 0.43 0.45 0.49 0.58 0.68 0.69 0.77 0.89 0.90 0.75 0.55 0.38 0.30 0.24 0.19 0.20 0.27 0.39 0.47 0.40 0.33 0.38 0.47 0.59 0.70 0.76 0.74 0.77 0.80 0.71 0.62
0.27 0.22 0.17 0.15 0.15 0.16 0.15 0.16 0.20 0.24 0.26 0.32 0.41 0.46 0.52 0.51 0.51 0.61 0.74 0.80 0.74 0.76 0.74 0.64 0.44 0.29 0.20 0.20 0.21 0.29 0.40 0.46 0.39 0.30 0.32 0.41 0.56 0.68 0.75 0.76 0.77 0.76 0.68 0.62
0.20 0.17 0.15 0.13 0.13 0.13 0.12 0.13 0.17 0.21 0.25 0.36 0.43 0.47 0.55 0.53 0.53 0.52 0.55 0.68 0.71 0.78 0.73 0.67 0.55 0.39 0.25 0.20 0.20 0.27 0.36 0.42 0.38 0.30 0.28 0.36 0.51 0.61 0.68 0.72 0.74 0.73 0.69 0.67
0.18 0.15 0.11 0.09 0.08 0.09 0.09 0.11 0.13 0.16 0.29 0.44 0.49 0.53 0.57 0.53 0.56 0.66 0.61 0.51 0.55 0.67 0.61 0.55 0.53 0.43 0.30 0.23 0.22 0.27 0.38 0.46 0.45 0.34 0.30 0.36 0.43 0.48 0.56 0.60 0.63 0.67 0.71 0.67
0.23 0.17 0.13 0.09 0.07 0.09 0.12 0.13 0.12 0.15 0.28 0.39 0.38 0.43 0.47 0.49 0.50 0.51 0.52 0.50 0.53 0.60 0.52 0.47 0.45 0.42 0.38 0.34 0.34 0.36 0.41 0.45 0.43 0.33 0.30 0.34 0.37 0.40 0.48 0.57 0.65 0.71 0.68 0.61
0.20 0.16 0.13 0.11 0.12 0.13 0.15 0.13 0.12 0.14 0.27 0.41 0.36 0.35 0.35 0.39 0.49 0.51 0.48 0.46 0.51 0.53 0.49 0.48 0.43 0.40 0.38 0.46 0.52 0.50 0.45 0.43 0.39 0.33 0.30 0.31 0.35 0.39 0.46 0.59 0.69 0.70 0.63 0.60
0.20 0.18 0.16 0.14 0.13 0.13 0.13 0.13 0.14 0.16 0.31 0.54 0.50 0.41 0.38 0.35 0.39 0.45 0.52 0.51 0.51 0.54 0.51 0.47 0.41 0.41 0.42 0.51 0.57 0.53 0.45 0.41 0.39 0.37 0.35 0.36 0.41 0.47 0.54 0.64 0.65 0.57 0.51 0.48
0.15 0.14 0.13 0.12 0.11 0.10 0.11 0.14 0.17 0.21 0.34 0.60 0.64 0.47 0.40 0.39 0.42 0.48 0.55 0.57 0.54 0.52 0.50 0.44 0.39 0.37 0.38 0.43 0.44 0.44 0.42 0.41 0.42 0.41 0.39 0.40 0.41 0.46 0.49 0.53 0.53 0.46 0.42 0.39